Location: Asheville, NC
(35.6000°N, 82.5500°W)
Time: 08:59:13
(UTC-04:00)

STRAND 1 - Pass Details

Date: 10 January 2018
Orbit: 767 x 782 km, 98.5° (Epoch: 25 April)

Event Time Altitude Azimuth Distance (km) Brightness Sun altitude
Exits shadow 20:08:58 24° 189° (S) 1,553 ? -30.6°
Drops below altitude 10° 20:10:58 10° 191° (S) 2,318 ? -31.0°
Sets 20:13:16 0° 192° (SSW) 3,244 ? -31.4°
